Location: *
(17.3280°S, 114.7300°W)
Time: 13:09:38
(UTC+00:00)

Hubble Space Telescope - Pass Details

Date: 27 October 2020
Orbit: 536 x 540 km, 28.5° (Epoch: 29 November)

Event Time Altitude Azimuth Distance (km) Brightness Sun altitude
Exits shadow 12:02:27 - 229° (SW) 2,090 3.5 -14.6°
Reaches altitude 10° 12:03:19 10° 223° (SW) 1,800 3.2 -14.4°
Maximum altitude 12:06:48 25° 167° (SSE) 1,106 2.7 -13.6°
Drops below altitude 10° 12:10:17 10° 110° (ESE) 1,795 5.0 -12.8°
Sets 12:12:50 0° 96° (E) 2,683 6.2 -12.3°
